Location: Austin
(30.3000°N, 97.7500°W)
Time: 07:08:49
(UTC-05:00)

Iridium 4 Rocket - Pass Details

Date: 19 September 2023
Orbit: 584 x 897 km, 86.9° (Epoch: 25 September)

Event Time Altitude Azimuth Distance (km) Brightness Sun altitude
Rises 05:31:25 0° 352° (N) 3,406 7.0 -23.4°
Reaches altitude 10° 05:33:58 10° 347° (NNW) 2,427 6.1 -22.9°
Maximum altitude 05:39:12 50° 274° (W) 988 3.6 -21.8°
Enters shadow 05:39:27 49° 264° (W) 991 3.6 -21.7°
